KKS-1 (KISEKI)

Last updated on Sun Jun 21 2026 00:03:20 GMT+0000 (Coordinated Universal Time)

1 33499U 09002H 26171.42750161 .00000993 00000+0 12861-3 0 9993 2 33499 98.1188 93.9212 0006425 283.2129 76.8367 14.83130850936676
UTC large
Height (km)
Speed (km/s)
/
Latitude / Longitude
Inclination (degrees)
Orbital Period (minutes)
Azimuth
Elevation
Range (km)
Doppler Factor

Next 0 passes for location: London (51.5072 / 0.1276)

No passes found over London.
KKS-1 (KISEKI)